Latest Coastal Weather Observations for Coconut Island

IDQ60701

Issued at 12:02 pm EST Friday 29 July 2016 (issued every 10 minutes, with the page automatically refreshed every 10 minutes)

About coastal observations | Map of coastal stations | Coastal observations for QLD | Marine services | Other Formats
Station Details ID: 027054 Name: COCONUT ISLAND Lat: -10.05 Lon: 143.07 Height: 3.5 m
Data from the previous 72 hours. | See also: Recent months at Coconut Island
Date/Time
EST
Temp
°C
Wind Pressure Rain since
9am
mm
Weather Cloud Vis
km
Sea
Height
m
Swell
Dir  Spd
kts
Gust
kts
hPa Trend Height
m
Period
s
Dir
29/12:00pm 31.0 SE 4 9 1010.4 - 0.0 - - - - - - -
29/11:30am 29.8 SSE 4 9 1010.8 - 0.0 - - - - - - -
29/11:00am 29.7 SSE 4 10 1011.3 - 0.0 - - - - - - -
29/10:30am 29.9 SSE 4 9 1011.3 - 0.0 - - - - - - -
29/10:00am 28.9 SSE 5 9 1011.4 - 0.0 - - - - - - -
29/09:30am 27.3 SE 4 7 1011.5 - 0.0 - - - - - - -
29/09:00am 26.7 SSE 5 10 1011.5 - 0.4 - - - - - - -
29/08:30am 26.6 SSE 5 9 1011.3 - 0.4 - - - - - - -
29/08:00am 26.3 SSE 5 9 1011.0 - 0.4 - - - - - - -
29/07:30am 26.0 SSE 5 11 1010.9 - 0.4 - - - - - - -
29/07:00am 25.6 SSE 5 9 1010.5 - 0.4 - - - - - - -
29/06:30am 25.7 SSE 5 10 1010.3 - 0.4 - - - - - - -
29/06:00am 25.3 SSE 5 8 1010.1 - 0.2 - - - - - - -
29/05:30am 26.0 SSE 5 11 1009.9 - 0.2 - - - - - - -
29/05:00am 25.9 SSE 5 11 1010.0 - 0.2 - - - - - - -
29/04:30am 25.8 SSE 5 7 1009.8 - 0.2 - - - - - - -
29/04:00am 25.8 SSE 5 10 1009.7 - 0.2 - - - - - - -
29/03:30am 25.8 SSE 5 10 1009.6 - 0.2 - - - - - - -
29/03:00am 25.8 SSE 6 9 1009.8 - 0.2 - - - - - - -
29/02:30am 25.9 SSE 6 9 1010.1 - 0.2 - - - - - - -
29/02:00am 25.9 SSE 7 10 1010.3 - 0.2 - - - - - - -
29/01:30am 26.1 SSE 6 10 1010.6 - 0.2 - - - - - - -
29/01:00am 26.2 SSE 5 9 1011.0 - 0.2 - - - - - - -
29/12:30am 26.2 SSE 5 8 1011.3 - 0.2 - - - - - - -
29/12:00am 26.3 SSE 6 12 1011.5 - 0.2 - - - - - - -
 
Date/Time
EST
Temp
°C
Wind Pressure Rain since
9am
mm
Weather Cloud Vis
km
Sea
Height
m
Swell
Dir  Spd
kts
Gust
kts
hPa Trend Height
m
Period
s
Dir
28/11:30pm 26.1 SSE 5 12 1011.4 - 0.2 - - - - - - -
28/11:00pm 26.3 SSE 5 9 1011.8 - 0.2 - - - - - - -
28/10:30pm 26.3 SSE 5 9 1011.9 - 0.2 - - - - - - -
28/10:00pm 26.4 SSE 5 8 1011.8 - 0.2 - - - - - - -
28/09:30pm 26.3 SSE 6 11 1011.6 - 0.2 - - - - - - -
28/09:00pm 26.4 SSE 6 13 1011.4 - 0.2 - - - - - - -
28/08:30pm 26.3 SSE 6 11 1011.1 - 0.2 - - - - - - -
28/08:00pm 26.3 SSE 6 9 1010.7 - 0.2 - - - - - - -
28/07:30pm 26.4 SSE 6 13 1010.2 - 0.2 - - - - - - -
28/07:00pm 26.4 SSE 7 11 1009.8 - 0.2 - - - - - - -
28/06:30pm 26.4 SSE 5 10 1009.7 - 0.2 - - - - - - -
28/06:00pm 26.7 SSE 6 12 1009.5 - 0.2 - - - - - - -
28/05:30pm 26.9 SSE 5 11 1009.3 - 0.2 - - - - - - -
28/05:00pm 27.1 SE 5 13 1009.2 - 0.2 - - - - - - -
28/04:30pm 27.4 SE 5 10 1009.0 - 0.2 - - - - - - -
28/04:00pm 27.5 SSE 4 8 1008.9 - 0.2 - - - - - - -
28/03:30pm 28.1 SE 4 10 1008.7 - 0.2 - - - - - - -
28/03:00pm 27.3 SSE 4 9 1008.9 - 0.2 - - - - - - -
28/02:30pm 27.0 SSE 6 13 1009.0 - 0.2 - - - - - - -
28/02:00pm 27.6 SSE 4 8 1009.3 - 0.2 - - - - - - -
28/01:30pm 29.1 SSE 3 9 1009.7 - 0.2 - - - - - - -
28/01:00pm 29.3 SSE 4 9 1010.2 - 0.2 - - - - - - -
28/12:30pm 27.7 SE 4 9 1010.5 - 0.2 - - - - - - -
28/12:00pm 29.3 SE 4 9 1010.6 - 0.2 - - - - - - -
28/11:30am 28.5 SE 4 9 1011.0 - 0.2 - - - - - - -
28/11:00am 28.0 SSE 4 8 1011.2 - 0.2 - - - - - - -
28/10:30am 27.2 SSE 3 8 1011.6 - 0.2 - - - - - - -
28/10:00am 26.7 SSE 4 7 1011.5 - 0.2 - - - - - - -
28/09:30am 26.6 SSE 4 8 1011.7 - 0.0 - - - - - - -
28/09:00am 26.5 SSE 4 7 1011.7 - 13.0 - - - - - - -
28/08:30am 26.2 SSE 4 6 1011.3 - 13.0 - - - - - - -
28/08:00am 25.9 SSE 4 10 1011.2 - 13.0 - - - - - - -
28/07:30am 25.7 SSE 5 9 1010.8 - 13.0 - - - - - - -
28/07:00am 25.6 SSE 5 8 1010.5 - 13.0 - - - - - - -
28/06:30am 25.5 SSE 4 7 1010.3 - 13.0 - - - - - - -
28/06:00am 25.3 SSE 4 7 1010.0 - 13.0 - - - - - - -
28/05:30am 25.6 SSE 4 7 1010.0 - 13.0 - - - - - - -
28/05:00am 25.3 SSE 3 6 1010.1 - 13.0 - - - - - - -
28/04:30am 25.1 SSE 6 11 1010.0 - 13.0 - - - - - - -
28/04:00am 24.8 SSE 4 7 1010.1 - 13.0 - - - - - - -
28/03:30am 24.9 SE 4 8 1010.3 - 13.0 - - - - - - -
28/03:00am 25.4 SSE 6 9 1010.3 - 12.4 - - - - - - -
28/02:30am 25.3 SSE 6 10 1010.4 - 12.4 - - - - - - -
28/02:00am 25.2 SSE 7 9 1010.5 - 12.4 - - - - - - -
28/01:30am 25.4 SSE 7 10 1010.6 - 12.4 - - - - - - -
28/01:00am 25.6 SSE 6 10 1011.2 - 11.6 - - - - - - -
28/12:30am 25.5 SSE 6 8 1011.4 - 11.6 - - - - - - -
28/12:00am 25.4 SSE 6 9 1011.6 - 11.6 - - - - - - -
 
Date/Time
EST
Temp
°C
Wind Pressure Rain since
9am
mm
Weather Cloud Vis
km
Sea
Height
m
Swell
Dir  Spd
kts
Gust
kts
hPa Trend Height
m
Period
s
Dir
27/11:30pm 25.3 SSE 6 8 1011.8 - 11.6 - - - - - - -
27/11:00pm 25.3 SSE 7 9 1011.9 - 11.6 - - - - - - -
27/10:30pm 25.3 SSE 6 8 1011.9 - 11.6 - - - - - - -
27/10:00pm 25.2 SSE 6 9 1011.8 - 11.6 - - - - - - -
27/09:30pm 24.9 SSE 7 9 1011.7 - 11.0 - - - - - - -
27/09:00pm 24.9 SSE 6 9 1011.7 - 10.8 Rain - - - - - -
27/08:30pm 24.7 SSE 7 11 1011.7 - 9.8 - - - - - - -
27/08:00pm 24.9 SSE 6 10 1011.4 - 9.8 - - - - - - -
27/07:30pm 25.1 SSE 5 8 1011.1 - 9.6 - - - - - - -
27/07:00pm 25.5 SSE 5 8 1010.6 - 2.8 - - - - - - -
27/06:30pm 25.5 SSE 6 9 1010.3 - 2.4 - - - - - - -
27/06:00pm 25.5 SSE 6 8 1010.2 - 2.4 Rain - - - - - -
27/05:30pm 25.5 SSE 5 7 1009.8 - 2.2 - - - - - - -
27/05:00pm 25.3 SSE 6 8 1009.6 - 2.0 - - - - - - -
27/04:30pm 26.0 SSE 6 9 1009.4 - 1.2 - - - - - - -
27/04:00pm 26.2 SSE 6 9 1009.3 - 0.2 - - - - - - -
27/03:30pm 26.6 SSE 7 10 1009.3 - 0.0 - - - - - - -
27/03:00pm 27.6 SSE 6 11 1009.4 - 0.0 - - - - - - -
27/02:30pm 30.2 SSE 5 7 1009.5 - 0.0 - - - - - - -
27/02:00pm 29.9 SSE 6 8 1009.8 - 0.0 - - - - - - -
27/01:30pm 30.2 SSE 6 9 1010.2 - 0.0 - - - - - - -
27/01:00pm 30.1 SSE 5 8 1010.6 - 0.0 - - - - - - -
27/12:30pm 30.8 SSE 5 8 1011.0 - 0.0 - - - - - - -
27/12:00pm 30.2 SSE 5 9 1011.5 - 0.0 - - - - - - -
27/11:30am 30.0 SSE 5 8 1011.8 - 0.0 - - - - - - -
27/11:00am 29.5 SSE 4 7 1012.0 - 0.0 - - - - - - -
27/10:30am 28.0 SSE 4 7 1012.3 - 0.0 - - - - - - -
27/10:00am 28.3 SSE 4 7 1012.2 - 0.0 - - - - - - -
27/09:30am 27.5 SSE 5 8 1012.2 - 0.0 - - - - - - -
27/09:00am 26.9 SSE 5 7 1011.9 - 0.2 - - - - - - -
27/08:30am 26.9 SSE 4 7 1011.8 - 0.2 - - - - - - -
27/08:00am 26.2 SSE 5 7 1011.5 - 0.2 - - - - - - -
27/07:30am 26.0 SSE 5 8 1011.2 - 0.2 - - - - - - -
27/07:00am 25.7 SSE 6 9 1010.9 - 0.2 - - - - - - -
27/06:30am 25.9 SSE 5 9 1010.5 - 0.2 - - - - - - -
27/06:00am 25.8 SSE 5 7 1010.3 - 0.2 - - - - - - -
27/05:30am 25.9 SSE 5 7 1010.1 - 0.2 - - - - - - -
27/05:00am 26.0 SSE 5 8 1010.2 - 0.2 - - - - - - -
27/04:30am 25.8 SSE 4 6 1010.2 - 0.2 - - - - - - -
27/04:00am 25.8 SSE 5 7 1010.1 - 0.2 - - - - - - -
27/03:30am 25.7 SSE 4 7 1010.2 - 0.2 - - - - - - -
27/03:00am 25.7 SSE 4 6 1010.3 - 0.2 - - - - - - -
27/02:30am 25.6 SSE 4 6 1010.5 - 0.2 - - - - - - -
27/02:00am 25.6 SSE 4 7 1010.7 - 0.2 - - - - - - -
27/01:30am 25.7 SSE 4 7 1010.7 - 0.2 - - - - - - -
27/01:00am 25.7 SSE 3 5 1011.2 - 0.2 - - - - - - -
27/12:30am 25.8 SSE 3 5 1011.4 - 0.2 - - - - - - -
27/12:00am 25.9 SSE 4 6 1011.6 - 0.2 - - - - - - -
 
Date/Time
EST
Temp
°C
Wind Pressure Rain since
9am
mm
Weather Cloud Vis
km
Sea
Height
m
Swell
Dir  Spd
kts
Gust
kts
hPa Trend Height
m
Period
s
Dir
26/11:30pm 25.7 SSE 3 5 1011.8 - 0.2 - - - - - - -
26/11:00pm 25.7 SSE 4 6 1011.8 - 0.2 - - - - - - -
26/10:30pm 25.8 SSE 3 7 1011.8 - 0.2 - - - - - - -
26/10:00pm 25.9 SSE 3 6 1011.8 - 0.2 - - - - - - -
26/09:30pm 26.0 SSE 4 6 1011.6 - 0.2 - - - - - - -
26/09:00pm 26.1 SSE 3 5 1011.5 - 0.2 - - - - - - -
26/08:30pm 26.1 SSE 3 6 1011.4 - 0.2 - - - - - - -
26/08:00pm 26.1 SSE 3 5 1011.2 - 0.2 - - - - - - -
26/07:30pm 26.2 SSE 3 5 1010.9 - 0.2 - - - - - - -
26/07:00pm 26.2 SSE 3 5 1010.4 - 0.2 - - - - - - -
26/06:30pm 26.5 SSE 3 6 1010.1 - 0.2 - - - - - - -
26/06:00pm 26.9 SSE 3 5 1009.8 - 0.2 - - - - - - -
26/05:30pm 27.6 SE 2 6 1009.7 - 0.2 - - - - - - -
26/05:00pm 27.9 SE 3 7 1009.4 - 0.2 - - - - - - -
26/04:30pm 28.7 SE 3 8 1009.3 - 0.2 - - - - - - -
26/04:00pm 29.1 SE 3 9 1009.4 - 0.2 - - - - - - -
26/03:30pm 29.4 SE 3 9 1009.4 - 0.2 - - - - - - -
26/03:00pm 29.7 SE 2 6 1009.5 - 0.2 Recent precip. - - - - - -
26/02:30pm 28.7 SSE 2 5 1009.6 - 0.2 - - - - - - -
26/02:00pm 27.3 SSE 2 5 1010.0 - 0.0 - - - - - - -
26/01:30pm 30.8 SSE 2 4 1010.5 - 0.0 - - - - - - -
26/01:00pm 30.4 SSE 2 4 1010.9 - 0.0 - - - - - - -
26/12:30pm 30.9 SE 2 6 1011.3 - 0.0 - - - - - - -

Other Formats:

Comma delimited format used in spreadsheet applications
http://www.bom.gov.au/fwo/IDQ60701/IDQ60701.94182.axf

JavaScript Object Notation format (JSON) in row-major order
http://www.bom.gov.au/fwo/IDQ60701/IDQ60701.94182.json